Location: Beemte
(52.2555°N, 5.9895°E)
Time: 21:43:27
(UTC+00:00)

Meteor 1-11 Rocket - Pass Details

Date: 15 May 2026
Orbit: 829 x 915 km, 81.2° (Epoch: 10 June)

Event Time Altitude Azimuth Distance (km) Brightness Sun altitude
Rises 22:59:31 0° 346° (NNW) 3,462 8.6 -18.3°
Reaches altitude 10° 23:01:58 10° 346° (NNW) 2,508 7.4 -18.4°
Maximum altitude 23:07:39 83° 260° (W) 859 3.7 -18.5°
Enters shadow 23:10:16 33° 175° (S) 1,375 4.2 -18.5°
